Вернуться в каталог

STARLINK-4580

АктивенСвязьVLEO
NORAD 53579·PAYLOAD·🇺🇸 United States

Запущен Aug 19, 2022 с Cape Canaveral Space Force Station

Loading…

Ближайшие Пролёты (ближайшие 24 часа)

TLE

СвежийSource: CelesTrak SupGP

Эпоха: Sep 15, 2026, 01:40 UTC

1 53579C 22101BE  26258.06993056  .00006866  00000+0  20287-3 0  2581
2 53579  53.1566 269.2001 0001162 101.3868   4.9915 15.34386300    16

Отслеживайте STARLINK-4580 в реальном времени с AllMySat

Download on the App Store